SL-12 R/B(2), 12850

Orbit data source: Space-Track

SL-12 R/B(2), 12850 is space debris in GEO originally from a launch on Thu, 30 Jul 1981 UTC launched from the Tyuratam Missile And Space Complex (TTMTR). Debris objects in space refer to the collection of defunct objects orbiting the Earth. Examples of debris include non-operational satellites, rocket bodies, and fragments generated from explosions, collisions, or faulty payload assembly.

Loading next visibility...
Identifier
12850, 1981-069F
Orbit
GEO
Country
Flag of CISCIS
Related business
Manufacturer
NPO Energiya
Mission
Spacecraft
Bus & Motor
BLOK DM, Unknown motor
Mass
2,440 kg wet, 2,440 kg dry
Launch date (UTC)
1981-07-30 (45 years ago)
Launch vehicle
Unknown
Launch site
Tyuratam Missile And Space Complex (TTMTR)
Object type
Payload
Rocket body
Debris
Shape & HBR
Unknown
Radar Cross Section
Large (>1 m²)

Expand to show TLE details & history
Last TLE update: 17 hours ago

TLE from 17 hours ago
0 SL-12 R/B(2)
1 12850U 81069F   26037.11711441 -.00000117  00000-0  00000-0 0  9998
2 12850   8.4419 300.7663 0019718 186.4048   3.3767  0.97700545114948
Epoch: 2026-02-06T02:48Z
TLE epoch observation values (Epoch: 2026-02-06T02:48:38.685Z)
Latitude
-1.42334°
Longitude
-47.92152°
Altitude
36,438.067 km
Speed
3.054 km/s
True Right ascension
08h 41m 59s
True Declination
-1° 25' 19"
Sunlit
Object was in daylight at epoch
Visualization orbit readout
Latitude
Unknown
Longitude
Unknown
Altitude
Unknown
Speed
Unknown
Apparent Right ascension
Unknown
Apparent Declination
Unknown
Sunlit
N/A
Visualization observer readout
Local Sidereal Time
22:02:43
Azimuth
Unknown
Elevation
Unknown
Doppler factor
Unknown
Orbital elements
Apogee altitude
36,608.784 km
Perigee altitude
36,439.594 km
Semi-major axis
42,902.326 km
Eccentricity
0.00197
Inclination
8.4419°
RAAN
300.7663°
Arg. of periapsis
186.4048°
True anomaly
3.39004°
Mean anomaly
3.3767°
Eccentric anomaly
3.38337°
Mean motion
0.24424 °/min
Orbital period
1,473.94 mins
BSTAR
0
Loading maneuver chart data...
Computing Atmospheric mass density...
Loading historical data...
Loading historical data...
Loading historical data...
Loading historical data...
Loading historical data...
Loading historical data...
Loading historical data...

Documentation

Showing up to 5 results
|